This demonstration page uses our WeatherBlox Daily Observations layout. Learn more.

40.92945, -100.16068

Hourly Observations for June 22, 2017

Temp ( °F °C ) Dew Point ( °F °C ) Humidity (%) Winds ( mph kmh ) Pressure ( in mb ) Visibility ( mi km ) Precip ( " mm )
12:15 am 00:15 Clear 78 25.3 66 18.7 67 67 S 17 28 29.59 1002 10 16.0934 0 0
12:35 am 00:35 Clear 78 25.5 66 18.8 67 67 S 17 28 29.59 1002 10 16.0934 0 0
12:55 am 00:55 Clear 78 25.7 66 18.7 65 65 S 18 30 29.59 1002 10 16.0934 0 0
1:15 am 01:15 Clear 78 25.6 63 17.4 61 61 S 18 30 29.59 1002 10 16.0934 0 0
1:35 am 01:35 Clear 78 25.3 62 16.6 59 59 S 21 33 29.59 1002 10 16.0934 0 0
1:55 am 01:55 Clear 78 25.5 60 15.8 55 55 S 20 31 29.59 1002 10 16.0934 0 0
2:15 am 02:15 Clear 78 25.4 60 15.3 54 54 S 17 28 29.59 1002 10 16.0934 0 0
2:35 am 02:35 Clear 77 24.8 60 15.5 56 56 S 18 30 29.59 1002 10 16.0934 0 0
2:55 am 02:55 Clear 76 24.5 59 15 56 56 SSW 18 30 29.59 1002 10 16.0934 0 0
3:15 am 03:15 Clear 76 24.7 58 14.5 53 53 SSW 17 28 29.59 1002 10 16.0934 0 0
3:35 am 03:35 Clear 77 25 57 13.8 50 50 S 18 30 29.56 1001 10 16.0934 0 0
3:55 am 03:55 Clear 77 24.8 56 13.5 50 50 S 18 30 29.56 1001 10 16.0934 0 0
4:15 am 04:15 Clear 76 24.5 56 13.3 50 50 S 17 28 29.56 1001 10 16.0934 0 0
4:35 am 04:35 Clear 75 24 56 13.5 52 52 S 15 24 29.56 1001 10 16.0934 0 0
4:55 am 04:55 Clear 74 23.5 56 13.6 54 54 S 16 26 29.59 1002 10 16.0934 0 0
5:15 am 05:15 Clear 74 23.3 57 13.9 56 56 S 13 20 29.59 1002 10 16.0934 0 0
5:35 am 05:35 Clear 74 23.5 57 14.1 56 56 SSW 10 17 29.53 1000 10 16.0934 0 0
5:55 am 05:55 Clear 74 23.5 58 14.2 56 56 SW 9 15 29.59 1002 10 16.0934 0 0
6:15 am 06:15 Sunny 73 22.7 58 14.2 59 59 SSW 9 15 29.59 1002 10 16.0934 0 0
6:35 am 06:35 Sunny 73 22.6 58 14.5 60 60 SSW 9 15 29.59 1002 10 16.0934 0 0
6:55 am 06:55 Sunny 72 22.3 59 14.9 63 63 S 13 20 29.56 1001 10 16.0934 0 0
7:15 am 07:15 Sunny 73 22.5 59 15.1 63 63 S 15 24 29.56 1001 10 16.0934 0 0
7:35 am 07:35 Sunny 73 22.7 60 15.5 64 64 S 12 19 29.56 1001 10 16.0934 0 0
7:55 am 07:55 Sunny 73 23 60 15.6 63 63 S 14 22 29.53 1000 10 16.0934 0 0
8:15 am 08:15 Sunny 74 23.5 61 16.1 63 63 W 5 7 29.53 1000 10 16.0934 0 0
8:35 am 08:35 Sunny 76 24.3 61 16 60 60 WSW 6 9 29.53 1000 10 16.0934 0 0
8:55 am 08:55 Sunny 76 24.5 61 16.2 60 60 SW 12 19 29.53 1000 10 16.0934 0 0
9:15 am 09:15 Sunny 78 25.7 62 16.7 58 58 SW 8 13 29.53 1000 10 16.0934 0 0
9:35 am 09:35 Sunny 80 26.6 62 16.4 54 54 WSW 6 9 29.53 1000 10 16.0934 0 0
9:55 am 09:55 Sunny 81 27.1 61 16.3 52 52 WSW 7 11 29.5 999 10 16.0934 0 0
10:15 am 10:15 Sunny 82 27.7 62 16.6 51 51 WSW 5 7 29.5 999 10 16.0934 0 0
10:35 am 10:35 Sunny 82 27.8 62 16.8 51 51 WSW 3 6 29.5 999 10 16.0934 0 0
10:55 am 10:55 Sunny 84 29 64 17.6 50 50 WNW 7 11 29.5 999 10 16.0934 0 0
11:15 am 11:15 Sunny 86 29.8 60 15.4 42 42 NW 10 17 29.5 999 10 16.0934 0 0
11:35 am 11:35 Sunny 86 30 62 16.4 44 44 NNW 6 9 29.5 999 10 16.0934 0 0
11:55 am 11:55 Sunny 88 31 62 16.8 42 42 NW 10 17 29.53 1000 10 16.0934 0 0
12:15 pm 12:15 Sunny 90 32 58 14.5 35 35 NNW 15 24 29.47 998 10 16.0934 0 0
12:35 pm 12:35 Sunny 88 31.2 58 14.4 36 36 NNW 15 24 29.5 999 10 16.0934 0 0
12:55 pm 12:55 Sunny 89 31.8 59 14.9 36 36 N 14 22 29.5 999 10 16.0934 0 0
1:15 pm 13:15 Sunny 90 32 60 15.6 37 37 N 16 26 29.5 999 10 16.0934 0 0
1:35 pm 13:35 Sunny 89 31.8 61 16.3 39 39 N 15 24 29.5 999 10 16.0934 0 0
1:55 pm 13:55 Sunny 88 31.2 62 16.6 41 41 NNE 18 30 29.5 999 10 16.0934 0 0
2:15 pm 14:15 Sunny 88 31 63 17.4 44 44 N 17 28 29.53 1000 10 16.0934 0 0
2:35 pm 14:35 Partly Cloudy 89 31.5 66 19 47 47 NNE 18 30 29.5 999 10 16.0934 0 0
2:55 pm 14:55 Partly Cloudy 87 30.5 67 19.3 51 51 N 23 37 29.53 1000 10 16.0934 0 0
3:15 pm 15:15 Partly Cloudy 86 29.9 67 19.2 53 53 NNE 20 31 29.56 1001 10 16.0934 0 0
3:35 pm 15:35 Mostly Cloudy 84 29 65 18.5 53 53 N 18 30 29.56 1001 10 16.0934 0 0
3:55 pm 15:55 Mostly Cloudy 83 28.3 65 18.1 54 54 N 20 31 29.56 1001 10 16.0934 0 0
4:15 pm 16:15 Mostly Cloudy 83 28.5 64 17.8 52 52 NNE 16 26 29.56 1001 10 16.0934 0 0
4:35 pm 16:35 Mostly Cloudy 83 28.2 63 17.1 51 51 NNE 16 26 29.56 1001 10 16.0934 0 0
4:55 pm 16:55 Mostly Cloudy 84 28.7 62 16.8 49 49 NNE 17 28 29.56 1001 10 16.0934 0 0
5:15 pm 17:15 Partly Cloudy 82 28 61 16.3 49 49 NNE 17 28 29.56 1001 10 16.0934 0 0
5:35 pm 17:35 Mostly Cloudy 84 28.7 62 16.8 49 49 NNE 16 26 29.56 1001 10 16.0934 0 0
5:55 pm 17:55 Partly Cloudy 83 28.4 61 16 47 47 N 17 28 29.59 1002 10 16.0934 0 0
6:15 pm 18:15 Partly Cloudy 83 28.1 60 15.7 47 47 NNE 17 28 29.56 1001 10 16.0934 0 0
6:35 pm 18:35 Partly Cloudy 82 27.7 60 15.4 47 47 NNE 17 28 29.62 1003 10 16.0934 0 0
6:55 pm 18:55 Mostly Cloudy 81 27.3 60 15.5 49 49 NE 20 31 29.62 1003 10 16.0934 0 0
7:15 pm 19:15 Cloudy 81 27.1 60 15.7 50 50 NNE 16 26 29.62 1003 10 16.0934 0 0
7:35 pm 19:35 Partly Cloudy 80 26.5 59 15.2 50 50 NNE 15 24 29.65 1004 10 16.0934 0 0
7:55 pm 19:55 Mostly Cloudy 78 25.7 59 15 52 52 N 16 26 29.68 1005 10 16.0934 0 0
8:15 pm 20:15 Cloudy 77 25.2 58 14.7 52 52 NNE 13 20 29.68 1005 10 16.0934 0 0
8:35 pm 20:35 Partly Cloudy 76 24.5 58 14.7 54 54 N 12 19 29.71 1006 10 16.0934 0 0
8:55 pm 20:55 Sunny 75 23.9 59 15 58 58 N 13 20 29.71 1006 10 16.0934 0 0
9:15 pm 21:15 Clear 74 23.4 58 14.6 58 58 N 9 15 29.74 1007 10 16.0934 0 0
9:35 pm 21:35 Clear 73 22.7 57 14 58 58 N 10 17 29.74 1007 10 16.0934 0 0
9:55 pm 21:55 Clear 72 22 56 13.3 58 58 N 8 13 29.8 1009 10 16.0934 0 0
10:15 pm 22:15 Clear 70 21.2 55 13 60 60 N 12 19 29.8 1009 10 16.0934 0 0
10:35 pm 22:35 Clear 70 20.9 54 12.2 58 58 NNE 12 19 29.83 1010 10 16.0934 0 0
10:55 pm 22:55 Clear 69 20.5 53 11.7 57 57 NNE 13 20 29.83 1010 10 16.0934 0 0
11:15 pm 23:15 Clear 68 19.8 53 11.8 60 60 N 9 15 29.83 1010 10 16.0934 0 0
11:35 pm 23:35 Clear 66 19 53 11.8 63 63 NNE 10 17 29.83 1010 10 16.0934 0 0
11:55 pm 23:55 Clear 65 18.3 53 11.9 66 66 NNE 7 11 29.85 1011 10 16.0934 0 0

Powered by AerisWeather